Location: Alfortville
(48.8058°N, 2.4204°E)
Time: 05:00:32
(UTC+00:00)

Cosmos 1980 Rocket - Pass Details

Date: 31 May 2022
Orbit: 827 x 851 km, 71.0° (Epoch: 05 July)

Event Time Altitude Azimuth Distance (km) Brightness Sun altitude
Rises 02:24:14 0° 334° (NNW) 3,422 5.8 -11.2°
Reaches altitude 10° 02:28:20 10° 3° (N) 2,487 5.6 -10.8°
Maximum altitude 02:30:47 13° 29° (NNE) 2,298 5.9 -10.5°
Drops below altitude 10° 02:33:13 10° 54° (NE) 2,487 6.0 -10.3°
Sets 02:37:19 0° 83° (E) 3,420 6.1 -9.9°
